Location: Eferding
(48.3167°N, 14.0167°E)
Time: 01:04:23
(UTC+00:00)

COBE Rocket - Pass Details

Date: 12 November 2019
Orbit: 679 x 783 km, 97.1° (Epoch: 14 December)

Event Time Altitude Azimuth Distance (km) Brightness Sun altitude
Rises 16:29:12 0° 15° (NNE) 3,169 6.9 -10.1°
Reaches altitude 10° 16:31:35 10° 20° (NNE) 2,226 6.1 -10.5°
Maximum altitude 16:36:22 55° 98° (E) 855 3.9 -11.3°
Drops below altitude 10° 16:41:00 10° 177° (S) 2,150 6.5 -12.0°
Sets 16:43:15 0° 181° (S) 3,050 7.3 -12.4°
